owner,sensor,date,latitude,longitude,vertical_datum,sea_water_temperature,qcFlag 
COMPS,ioos:station:USF.COMPS:ANC:1,2011-02-01T00:00:00Z,28.1930,-82.7890,-1.0,18.9,2 
COMPS,ioos:station:USF.COMPS:ANC:1,2011-02-01T00:06:00Z,28.1930,-82.7890,-1.0,18.97,2 
COMPS,ioos:station:USF.COMPS:ANC:1,2011-02-01T00:12:00Z,28.1930,-82.7890,-1.0,18.98,2 
COMPS,ioos:station:USF.COMPS:ANC:1,2011-02-01T00:18:00Z,28.1930,-82.7890,-1.0,18.99,2 
COMPS,ioos:station:USF.COMPS:ANC:1,2011-02-01T00:24:00Z,28.1930,-82.7890,-1.0,19.01,2 
COMPS,ioos:station:USF.COMPS:ANC:1,2011-02-01T00:30:00Z,28.1930,-82.7890,-1.0,19.01,2 
COMPS,ioos:station:USF.COMPS:ANC:1,2011-02-01T00:36:00Z,28.1930,-82.7890,-1.0,19.02,2 
COMPS,ioos:station:USF.COMPS:ANC:1,2011-02-01T00:42:00Z,28.1930,-82.7890,-1.0,19.04,2 
COMPS,ioos:station:USF.COMPS:ANC:1,2011-02-01T00:48:00Z,28.1930,-82.7890,-1.0,19.05,2 
COMPS,ioos:station:USF.COMPS:ANC:1,2011-02-01T00:54:00Z,28.1930,-82.7890,-1.0,19.05,2 
COMPS,ioos:station:USF.COMPS:ANC:1,2011-02-01T01:00:00Z,28.1930,-82.7890,-1.0,19.1,2 
COMPS,ioos:station:USF.COMPS:ANC:1,2011-02-01T02:00:00Z,28.1930,-82.7890,-1.0,19.1,2 
COMPS,ioos:station:USF.COMPS:ANC:1,2011-02-01T03:00:00Z,28.1930,-82.7890,-1.0,19.0,2 
COMPS,ioos:station:USF.COMPS:ANC:1,2011-02-01T04:00:00Z,28.1930,-82.7890,-1.0,19.0,2 
COMPS,ioos:station:USF.COMPS:ANC:1,2011-02-01T04:06:00Z,28.1930,-82.7890,-1.0,18.95,2 
COMPS,ioos:station:USF.COMPS:ANC:1,2011-02-01T04:12:00Z,28.1930,-82.7890,-1.0,18.95,2 
COMPS,ioos:station:USF.COMPS:ANC:1,2011-02-01T04:18:00Z,28.1930,-82.7890,-1.0,18.95,2 
COMPS,ioos:station:USF.COMPS:ANC:1,2011-02-01T04:24:00Z,28.1930,-82.7890,-1.0,18.95,2 
COMPS,ioos:station:USF.COMPS:ANC:1,2011-02-01T04:30:00Z,28.1930,-82.7890,-1.0,18.95,2 
COMPS,ioos:station:USF.COMPS:ANC:1,2011-02-01T04:36:00Z,28.1930,-82.7890,-1.0,18.95,2 
COMPS,ioos:station:USF.COMPS:ANC:1,2011-02-01T04:42:00Z,28.1930,-82.7890,-1.0,18.95,2 
COMPS,ioos:station:USF.COMPS:ANC:1,2011-02-01T04:48:00Z,28.1930,-82.7890,-1.0,18.95,2 
COMPS,ioos:station:USF.COMPS:ANC:1,2011-02-01T04:54:00Z,28.1930,-82.7890,-1.0,18.94,2 
COMPS,ioos:station:USF.COMPS:ANC:1,2011-02-01T05:00:00Z,28.1930,-82.7890,-1.0,18.9,2 
COMPS,ioos:station:USF.COMPS:ANC:1,2011-02-01T06:00:00Z,28.1930,-82.7890,-1.0,18.9,2 
COMPS,ioos:station:USF.COMPS:ANC:1,2011-02-01T07:00:00Z,28.1930,-82.7890,-1.0,18.8,2 
COMPS,ioos:station:USF.COMPS:ANC:1,2011-02-01T08:00:00Z,28.1930,-82.7890,-1.0,18.7,2 
COMPS,ioos:station:USF.COMPS:ANC:1,2011-02-01T09:00:00Z,28.1930,-82.7890,-1.0,18.6,2 
COMPS,ioos:station:USF.COMPS:ANC:1,2011-02-01T10:00:00Z,28.1930,-82.7890,-1.0,18.2,2 
COMPS,ioos:station:USF.COMPS:ANC:1,2011-02-01T10:06:00Z,28.1930,-82.7890,-1.0,18.1,2 
COMPS,ioos:station:USF.COMPS:ANC:1,2011-02-01T10:12:00Z,28.1930,-82.7890,-1.0,18.06,2 
COMPS,ioos:station:USF.COMPS:ANC:1,2011-02-01T10:18:00Z,28.1930,-82.7890,-1.0,18.0,2 
COMPS,ioos:station:USF.COMPS:ANC:1,2011-02-01T10:24:00Z,28.1930,-82.7890,-1.0,17.95,2 
COMPS,ioos:station:USF.COMPS:ANC:1,2011-02-01T10:30:00Z,28.1930,-82.7890,-1.0,17.93,2 
COMPS,ioos:station:USF.COMPS:ANC:1,2011-02-01T10:36:00Z,28.1930,-82.7890,-1.0,17.91,2 
COMPS,ioos:station:USF.COMPS:ANC:1,2011-02-01T10:42:00Z,28.1930,-82.7890,-1.0,17.86,2 
COMPS,ioos:station:USF.COMPS:ANC:1,2011-02-01T10:48:00Z,28.1930,-82.7890,-1.0,17.83,2 
COMPS,ioos:station:USF.COMPS:ANC:1,2011-02-01T10:54:00Z,28.1930,-82.7890,-1.0,17.78,2 
COMPS,ioos:station:USF.COMPS:ANC:1,2011-02-01T11:00:00Z,28.1930,-82.7890,-1.0,17.8,2 
COMPS,ioos:station:USF.COMPS:ANC:1,2011-02-01T12:00:00Z,28.1930,-82.7890,-1.0,17.3,2 
COMPS,ioos:station:USF.COMPS:ANC:1,2011-02-01T13:00:00Z,28.1930,-82.7890,-1.0,18.0,2 
COMPS,ioos:station:USF.COMPS:ANC:1,2011-02-01T14:00:00Z,28.1930,-82.7890,-1.0,18.6,2 
COMPS,ioos:station:USF.COMPS:ANC:1,2011-02-01T14:06:00Z,28.1930,-82.7890,-1.0,18.76,2 
COMPS,ioos:station:USF.COMPS:ANC:1,2011-02-01T14:12:00Z,28.1930,-82.7890,-1.0,18.78,2 
COMPS,ioos:station:USF.COMPS:ANC:1,2011-02-01T14:18:00Z,28.1930,-82.7890,-1.0,18.82,2 
COMPS,ioos:station:USF.COMPS:ANC:1,2011-02-01T14:24:00Z,28.1930,-82.7890,-1.0,18.85,2 
COMPS,ioos:station:USF.COMPS:ANC:1,2011-02-01T14:30:00Z,28.1930,-82.7890,-1.0,18.88,2 
COMPS,ioos:station:USF.COMPS:ANC:1,2011-02-01T14:36:00Z,28.1930,-82.7890,-1.0,18.9,2 
COMPS,ioos:station:USF.COMPS:ANC:1,2011-02-01T14:42:00Z,28.1930,-82.7890,-1.0,18.91,2 
COMPS,ioos:station:USF.COMPS:ANC:1,2011-02-01T14:48:00Z,28.1930,-82.7890,-1.0,18.93,2 
COMPS,ioos:station:USF.COMPS:ANC:1,2011-02-01T14:54:00Z,28.1930,-82.7890,-1.0,18.95,2 
COMPS,ioos:station:USF.COMPS:ANC:1,2011-02-01T15:00:00Z,28.1930,-82.7890,-1.0,19.0,2 
COMPS,ioos:station:USF.COMPS:ANC:1,2011-02-01T16:00:00Z,28.1930,-82.7890,-1.0,18.8,2 
COMPS,ioos:station:USF.COMPS:ANC:1,2011-02-01T16:06:00Z,28.1930,-82.7890,-1.0,18.72,2 
COMPS,ioos:station:USF.COMPS:ANC:1,2011-02-01T16:12:00Z,28.1930,-82.7890,-1.0,18.67,2 
COMPS,ioos:station:USF.COMPS:ANC:1,2011-02-01T16:18:00Z,28.1930,-82.7890,-1.0,18.6,2 
COMPS,ioos:station:USF.COMPS:ANC:1,2011-02-01T16:24:00Z,28.1930,-82.7890,-1.0,18.55,2 
COMPS,ioos:station:USF.COMPS:ANC:1,2011-02-01T16:30:00Z,28.1930,-82.7890,-1.0,18.55,2 
COMPS,ioos:station:USF.COMPS:ANC:1,2011-02-01T16:36:00Z,28.1930,-82.7890,-1.0,18.52,2 
COMPS,ioos:station:USF.COMPS:ANC:1,2011-02-01T16:42:00Z,28.1930,-82.7890,-1.0,18.45,2 
COMPS,ioos:station:USF.COMPS:ANC:1,2011-02-01T16:48:00Z,28.1930,-82.7890,-1.0,18.43,2 
COMPS,ioos:station:USF.COMPS:ANC:1,2011-02-01T16:54:00Z,28.1930,-82.7890,-1.0,18.38,2 
COMPS,ioos:station:USF.COMPS:ANC:1,2011-02-01T17:00:00Z,28.1930,-82.7890,-1.0,18.4,2 
COMPS,ioos:station:USF.COMPS:ANC:1,2011-02-01T17:06:00Z,28.1930,-82.7890,-1.0,18.26,2 
COMPS,ioos:station:USF.COMPS:ANC:1,2011-02-01T17:12:00Z,28.1930,-82.7890,-1.0,18.19,2 
COMPS,ioos:station:USF.COMPS:ANC:1,2011-02-01T17:18:00Z,28.1930,-82.7890,-1.0,18.19,2 
COMPS,ioos:station:USF.COMPS:ANC:1,2011-02-01T17:24:00Z,28.1930,-82.7890,-1.0,18.08,2 
COMPS,ioos:station:USF.COMPS:ANC:1,2011-02-01T17:30:00Z,28.1930,-82.7890,-1.0,18.07,2 
COMPS,ioos:station:USF.COMPS:ANC:1,2011-02-01T17:36:00Z,28.1930,-82.7890,-1.0,18.05,2 
COMPS,ioos:station:USF.COMPS:ANC:1,2011-02-01T17:42:00Z,28.1930,-82.7890,-1.0,18.03,2 
COMPS,ioos:station:USF.COMPS:ANC:1,2011-02-01T17:48:00Z,28.1930,-82.7890,-1.0,18.07,2 
COMPS,ioos:station:USF.COMPS:ANC:1,2011-02-01T17:54:00Z,28.1930,-82.7890,-1.0,18.04,2 
COMPS,ioos:station:USF.COMPS:ANC:1,2011-02-01T18:00:00Z,28.1930,-82.7890,-1.0,18.0,2 
COMPS,ioos:station:USF.COMPS:ANC:1,2011-02-01T19:00:00Z,28.1930,-82.7890,-1.0,18.4,2 
COMPS,ioos:station:USF.COMPS:ANC:1,2011-02-01T20:00:00Z,28.1930,-82.7890,-1.0,18.9,2 
COMPS,ioos:station:USF.COMPS:ANC:1,2011-02-01T21:00:00Z,28.1930,-82.7890,-1.0,19.2,2 
COMPS,ioos:station:USF.COMPS:ANC:1,2011-02-01T21:06:00Z,28.1930,-82.7890,-1.0,19.26,2 
COMPS,ioos:station:USF.COMPS:ANC:1,2011-02-01T21:12:00Z,28.1930,-82.7890,-1.0,19.28,2 
COMPS,ioos:station:USF.COMPS:ANC:1,2011-02-01T21:18:00Z,28.1930,-82.7890,-1.0,19.33,2 
COMPS,ioos:station:USF.COMPS:ANC:1,2011-02-01T21:24:00Z,28.1930,-82.7890,-1.0,19.35,2 
COMPS,ioos:station:USF.COMPS:ANC:1,2011-02-01T21:30:00Z,28.1930,-82.7890,-1.0,19.38,2 
COMPS,ioos:station:USF.COMPS:ANC:1,2011-02-01T21:36:00Z,28.1930,-82.7890,-1.0,19.38,2 
COMPS,ioos:station:USF.COMPS:ANC:1,2011-02-01T21:42:00Z,28.1930,-82.7890,-1.0,19.39,2 
COMPS,ioos:station:USF.COMPS:ANC:1,2011-02-01T21:48:00Z,28.1930,-82.7890,-1.0,19.42,2 
COMPS,ioos:station:USF.COMPS:ANC:1,2011-02-01T21:54:00Z,28.1930,-82.7890,-1.0,19.45,2 
COMPS,ioos:station:USF.COMPS:ANC:1,2011-02-01T22:00:00Z,28.1930,-82.7890,-1.0,19.5,2 
COMPS,ioos:station:USF.COMPS:ANC:1,2011-02-01T23:00:00Z,28.1930,-82.7890,-1.0,19.5,2 
COMPS,ioos:station:USF.COMPS:ANC:1,2011-02-02T00:00:00Z,28.1930,-82.7890,-1.0,19.7,2 
COMPS,ioos:station:USF.COMPS:ANC:1,2011-02-02T00:06:00Z,28.1930,-82.7890,-1.0,19.78,2 
COMPS,ioos:station:USF.COMPS:ANC:1,2011-02-02T00:12:00Z,28.1930,-82.7890,-1.0,19.79,2 
COMPS,ioos:station:USF.COMPS:ANC:1,2011-02-02T00:18:00Z,28.1930,-82.7890,-1.0,19.79,2 
COMPS,ioos:station:USF.COMPS:ANC:1,2011-02-02T00:24:00Z,28.1930,-82.7890,-1.0,19.79,2 
COMPS,ioos:station:USF.COMPS:ANC:1,2011-02-02T00:30:00Z,28.1930,-82.7890,-1.0,19.77,2 
COMPS,ioos:station:USF.COMPS:ANC:1,2011-02-02T00:36:00Z,28.1930,-82.7890,-1.0,19.76,2 
COMPS,ioos:station:USF.COMPS:ANC:1,2011-02-02T00:42:00Z,28.1930,-82.7890,-1.0,19.79,2 
COMPS,ioos:station:USF.COMPS:ANC:1,2011-02-02T00:48:00Z,28.1930,-82.7890,-1.0,19.77,2 
COMPS,ioos:station:USF.COMPS:ANC:1,2011-02-02T00:54:00Z,28.1930,-82.7890,-1.0,19.78,2 
COMPS,ioos:station:USF.COMPS:ANC:1,2011-02-02T01:00:00Z,28.1930,-82.7890,-1.0,19.8,2 
COMPS,ioos:station:USF.COMPS:ANC:1,2011-02-02T02:00:00Z,28.1930,-82.7890,-1.0,19.9,2 
COMPS,ioos:station:USF.COMPS:ANC:1,2011-02-02T03:00:00Z,28.1930,-82.7890,-1.0,19.4,2 
COMPS,ioos:station:USF.COMPS:ANC:1,2011-02-02T03:06:00Z,28.1930,-82.7890,-1.0,19.46,2 
COMPS,ioos:station:USF.COMPS:ANC:1,2011-02-02T03:12:00Z,28.1930,-82.7890,-1.0,19.42,2 
COMPS,ioos:station:USF.COMPS:ANC:1,2011-02-02T03:18:00Z,28.1930,-82.7890,-1.0,19.38,2 
COMPS,ioos:station:USF.COMPS:ANC:1,2011-02-02T03:24:00Z,28.1930,-82.7890,-1.0,19.32,2 
COMPS,ioos:station:USF.COMPS:ANC:1,2011-02-02T03:30:00Z,28.1930,-82.7890,-1.0,19.26,2 
COMPS,ioos:station:USF.COMPS:ANC:1,2011-02-02T03:36:00Z,28.1930,-82.7890,-1.0,19.27,2 
COMPS,ioos:station:USF.COMPS:ANC:1,2011-02-02T03:42:00Z,28.1930,-82.7890,-1.0,19.3,2 
COMPS,ioos:station:USF.COMPS:ANC:1,2011-02-02T03:48:00Z,28.1930,-82.7890,-1.0,19.2,2 
COMPS,ioos:station:USF.COMPS:ANC:1,2011-02-02T03:54:00Z,28.1930,-82.7890,-1.0,19.25,2 
COMPS,ioos:station:USF.COMPS:ANC:1,2011-02-02T04:00:00Z,28.1930,-82.7890,-1.0,19.3,2 
COMPS,ioos:station:USF.COMPS:ANC:1,2011-02-02T04:06:00Z,28.1930,-82.7890,-1.0,19.3,2 
COMPS,ioos:station:USF.COMPS:ANC:1,2011-02-02T04:12:00Z,28.1930,-82.7890,-1.0,19.33,2 
COMPS,ioos:station:USF.COMPS:ANC:1,2011-02-02T04:18:00Z,28.1930,-82.7890,-1.0,19.28,2 
COMPS,ioos:station:USF.COMPS:ANC:1,2011-02-02T04:24:00Z,28.1930,-82.7890,-1.0,19.29,2 
COMPS,ioos:station:USF.COMPS:ANC:1,2011-02-02T04:30:00Z,28.1930,-82.7890,-1.0,19.33,2 
COMPS,ioos:station:USF.COMPS:ANC:1,2011-02-02T04:36:00Z,28.1930,-82.7890,-1.0,19.42,2 
COMPS,ioos:station:USF.COMPS:ANC:1,2011-02-02T04:42:00Z,28.1930,-82.7890,-1.0,19.44,2 
COMPS,ioos:station:USF.COMPS:ANC:1,2011-02-02T04:48:00Z,28.1930,-82.7890,-1.0,19.47,2 
COMPS,ioos:station:USF.COMPS:ANC:1,2011-02-02T04:54:00Z,28.1930,-82.7890,-1.0,19.58,2 
COMPS,ioos:station:USF.COMPS:ANC:1,2011-02-02T05:00:00Z,28.1930,-82.7890,-1.0,19.6,2 
COMPS,ioos:station:USF.COMPS:ANC:1,2011-02-02T06:00:00Z,28.1930,-82.7890,-1.0,19.8,2 
COMPS,ioos:station:USF.COMPS:ANC:1,2011-02-02T07:00:00Z,28.1930,-82.7890,-1.0,19.8,2 
COMPS,ioos:station:USF.COMPS:ANC:1,2011-02-02T08:00:00Z,28.1930,-82.7890,-1.0,19.8,2 
COMPS,ioos:station:USF.COMPS:ANC:1,2011-02-02T08:06:00Z,28.1930,-82.7890,-1.0,19.84,2 
COMPS,ioos:station:USF.COMPS:ANC:1,2011-02-02T08:12:00Z,28.1930,-82.7890,-1.0,19.84,2 
COMPS,ioos:station:USF.COMPS:ANC:1,2011-02-02T08:18:00Z,28.1930,-82.7890,-1.0,19.85,2 
COMPS,ioos:station:USF.COMPS:ANC:1,2011-02-02T08:24:00Z,28.1930,-82.7890,-1.0,19.88,2 
COMPS,ioos:station:USF.COMPS:ANC:1,2011-02-02T08:30:00Z,28.1930,-82.7890,-1.0,19.89,2 
COMPS,ioos:station:USF.COMPS:ANC:1,2011-02-02T08:36:00Z,28.1930,-82.7890,-1.0,19.9,2 
COMPS,ioos:station:USF.COMPS:ANC:1,2011-02-02T08:42:00Z,28.1930,-82.7890,-1.0,19.89,2 
COMPS,ioos:station:USF.COMPS:ANC:1,2011-02-02T08:48:00Z,28.1930,-82.7890,-1.0,19.89,2 
COMPS,ioos:station:USF.COMPS:ANC:1,2011-02-02T08:54:00Z,28.1930,-82.7890,-1.0,19.89,2 
COMPS,ioos:station:USF.COMPS:ANC:1,2011-02-02T09:00:00Z,28.1930,-82.7890,-1.0,19.9,2 
COMPS,ioos:station:USF.COMPS:ANC:1,2011-02-02T10:00:00Z,28.1930,-82.7890,-1.0,19.9,2 
COMPS,ioos:station:USF.COMPS:ANC:1,2011-02-02T11:00:00Z,28.1930,-82.7890,-1.0,19.9,2 
COMPS,ioos:station:USF.COMPS:ANC:1,2011-02-02T11:06:00Z,28.1930,-82.7890,-1.0,19.85,2 
COMPS,ioos:station:USF.COMPS:ANC:1,2011-02-02T11:12:00Z,28.1930,-82.7890,-1.0,19.86,2 
COMPS,ioos:station:USF.COMPS:ANC:1,2011-02-02T11:18:00Z,28.1930,-82.7890,-1.0,19.86,2 
COMPS,ioos:station:USF.COMPS:ANC:1,2011-02-02T11:24:00Z,28.1930,-82.7890,-1.0,19.86,2 
COMPS,ioos:station:USF.COMPS:ANC:1,2011-02-02T11:30:00Z,28.1930,-82.7890,-1.0,19.88,2 
COMPS,ioos:station:USF.COMPS:ANC:1,2011-02-02T11:36:00Z,28.1930,-82.7890,-1.0,19.9,2 
COMPS,ioos:station:USF.COMPS:ANC:1,2011-02-02T11:42:00Z,28.1930,-82.7890,-1.0,19.91,2 
COMPS,ioos:station:USF.COMPS:ANC:1,2011-02-02T11:48:00Z,28.1930,-82.7890,-1.0,19.92,2 
COMPS,ioos:station:USF.COMPS:ANC:1,2011-02-02T11:54:00Z,28.1930,-82.7890,-1.0,19.93,2 
COMPS,ioos:station:USF.COMPS:ANC:1,2011-02-02T12:00:00Z,28.1930,-82.7890,-1.0,19.9,2 
COMPS,ioos:station:USF.COMPS:ANC:1,2011-02-02T13:00:00Z,28.1930,-82.7890,-1.0,20.1,2 
COMPS,ioos:station:USF.COMPS:ANC:1,2011-02-02T14:00:00Z,28.1930,-82.7890,-1.0,20.2,2 
COMPS,ioos:station:USF.COMPS:ANC:1,2011-02-02T15:00:00Z,28.1930,-82.7890,-1.0,20.3,2 
COMPS,ioos:station:USF.COMPS:ANC:1,2011-02-02T15:06:00Z,28.1930,-82.7890,-1.0,20.26,2 
COMPS,ioos:station:USF.COMPS:ANC:1,2011-02-02T15:12:00Z,28.1930,-82.7890,-1.0,20.26,2 
COMPS,ioos:station:USF.COMPS:ANC:1,2011-02-02T15:18:00Z,28.1930,-82.7890,-1.0,20.26,2 
COMPS,ioos:station:USF.COMPS:ANC:1,2011-02-02T15:24:00Z,28.1930,-82.7890,-1.0,20.23,2 
COMPS,ioos:station:USF.COMPS:ANC:1,2011-02-02T15:30:00Z,28.1930,-82.7890,-1.0,20.23,2 
COMPS,ioos:station:USF.COMPS:ANC:1,2011-02-02T15:36:00Z,28.1930,-82.7890,-1.0,20.24,2 
COMPS,ioos:station:USF.COMPS:ANC:1,2011-02-02T15:42:00Z,28.1930,-82.7890,-1.0,20.22,2 
COMPS,ioos:station:USF.COMPS:ANC:1,2011-02-02T15:48:00Z,28.1930,-82.7890,-1.0,20.21,2 
COMPS,ioos:station:USF.COMPS:ANC:1,2011-02-02T15:54:00Z,28.1930,-82.7890,-1.0,20.18,2 
COMPS,ioos:station:USF.COMPS:ANC:1,2011-02-02T16:00:00Z,28.1930,-82.7890,-1.0,20.2,2 
COMPS,ioos:station:USF.COMPS:ANC:1,2011-02-02T17:00:00Z,28.1930,-82.7890,-1.0,20.0,2 
COMPS,ioos:station:USF.COMPS:ANC:1,2011-02-02T17:06:00Z,28.1930,-82.7890,-1.0,19.98,2 
COMPS,ioos:station:USF.COMPS:ANC:1,2011-02-02T17:12:00Z,28.1930,-82.7890,-1.0,19.95,2 
COMPS,ioos:station:USF.COMPS:ANC:1,2011-02-02T17:18:00Z,28.1930,-82.7890,-1.0,19.9,2 
COMPS,ioos:station:USF.COMPS:ANC:1,2011-02-02T17:24:00Z,28.1930,-82.7890,-1.0,19.89,2 
COMPS,ioos:station:USF.COMPS:ANC:1,2011-02-02T17:30:00Z,28.1930,-82.7890,-1.0,19.86,2 
COMPS,ioos:station:USF.COMPS:ANC:1,2011-02-02T17:36:00Z,28.1930,-82.7890,-1.0,19.93,2 
COMPS,ioos:station:USF.COMPS:ANC:1,2011-02-02T17:42:00Z,28.1930,-82.7890,-1.0,19.93,2 
COMPS,ioos:station:USF.COMPS:ANC:1,2011-02-02T17:48:00Z,28.1930,-82.7890,-1.0,19.97,2 
COMPS,ioos:station:USF.COMPS:ANC:1,2011-02-02T17:54:00Z,28.1930,-82.7890,-1.0,20.0,2 
COMPS,ioos:station:USF.COMPS:ANC:1,2011-02-02T18:00:00Z,28.1930,-82.7890,-1.0,20.0,2 
COMPS,ioos:station:USF.COMPS:ANC:1,2011-02-02T19:00:00Z,28.1930,-82.7890,-1.0,20.1,2 
COMPS,ioos:station:USF.COMPS:ANC:1,2011-02-02T20:00:00Z,28.1930,-82.7890,-1.0,20.3,2 
COMPS,ioos:station:USF.COMPS:ANC:1,2011-02-02T21:00:00Z,28.1930,-82.7890,-1.0,20.3,2 
COMPS,ioos:station:USF.COMPS:ANC:1,2011-02-02T22:00:00Z,28.1930,-82.7890,-1.0,20.3,2 
COMPS,ioos:station:USF.COMPS:ANC:1,2011-02-02T22:06:00Z,28.1930,-82.7890,-1.0,20.33,2 
COMPS,ioos:station:USF.COMPS:ANC:1,2011-02-02T22:12:00Z,28.1930,-82.7890,-1.0,20.35,2 
COMPS,ioos:station:USF.COMPS:ANC:1,2011-02-02T22:18:00Z,28.1930,-82.7890,-1.0,20.36,2 
COMPS,ioos:station:USF.COMPS:ANC:1,2011-02-02T22:24:00Z,28.1930,-82.7890,-1.0,20.36,2 
COMPS,ioos:station:USF.COMPS:ANC:1,2011-02-02T22:30:00Z,28.1930,-82.7890,-1.0,20.37,2 
COMPS,ioos:station:USF.COMPS:ANC:1,2011-02-02T22:36:00Z,28.1930,-82.7890,-1.0,20.38,2 
COMPS,ioos:station:USF.COMPS:ANC:1,2011-02-02T22:42:00Z,28.1930,-82.7890,-1.0,20.39,2 
COMPS,ioos:station:USF.COMPS:ANC:1,2011-02-02T22:48:00Z,28.1930,-82.7890,-1.0,20.4,2 
COMPS,ioos:station:USF.COMPS:ANC:1,2011-02-02T22:54:00Z,28.1930,-82.7890,-1.0,20.4,2 
COMPS,ioos:station:USF.COMPS:ANC:1,2011-02-02T23:00:00Z,28.1930,-82.7890,-1.0,20.4,2 
COMPS,ioos:station:USF.COMPS:ANC:1,2011-02-03T00:00:00Z,28.1930,-82.7890,-1.0,20.4,2 
COMPS,ioos:station:USF.COMPS:ANC:1,2011-02-03T01:00:00Z,28.1930,-82.7890,-1.0,20.6,2 
COMPS,ioos:station:USF.COMPS:ANC:1,2011-02-03T02:00:00Z,28.1930,-82.7890,-1.0,20.8,2 
COMPS,ioos:station:USF.COMPS:ANC:1,2011-02-03T03:00:00Z,28.1930,-82.7890,-1.0,20.5,2 
COMPS,ioos:station:USF.COMPS:ANC:1,2011-02-03T04:00:00Z,28.1930,-82.7890,-1.0,20.2,2 
COMPS,ioos:station:USF.COMPS:ANC:1,2011-02-03T04:06:00Z,28.1930,-82.7890,-1.0,20.05,2 
COMPS,ioos:station:USF.COMPS:ANC:1,2011-02-03T04:12:00Z,28.1930,-82.7890,-1.0,20.08,2 
COMPS,ioos:station:USF.COMPS:ANC:1,2011-02-03T04:18:00Z,28.1930,-82.7890,-1.0,20.07,2 
COMPS,ioos:station:USF.COMPS:ANC:1,2011-02-03T04:24:00Z,28.1930,-82.7890,-1.0,20.02,2 
COMPS,ioos:station:USF.COMPS:ANC:1,2011-02-03T04:30:00Z,28.1930,-82.7890,-1.0,20.01,2 
COMPS,ioos:station:USF.COMPS:ANC:1,2011-02-03T04:36:00Z,28.1930,-82.7890,-1.0,19.95,2 
COMPS,ioos:station:USF.COMPS:ANC:1,2011-02-03T04:42:00Z,28.1930,-82.7890,-1.0,19.92,2 
COMPS,ioos:station:USF.COMPS:ANC:1,2011-02-03T04:48:00Z,28.1930,-82.7890,-1.0,19.92,2 
COMPS,ioos:station:USF.COMPS:ANC:1,2011-02-03T04:54:00Z,28.1930,-82.7890,-1.0,19.8,2 
COMPS,ioos:station:USF.COMPS:ANC:1,2011-02-03T05:00:00Z,28.1930,-82.7890,-1.0,19.8,2 
COMPS,ioos:station:USF.COMPS:ANC:1,2011-02-03T06:00:00Z,28.1930,-82.7890,-1.0,20.2,2 
COMPS,ioos:station:USF.COMPS:ANC:1,2011-02-03T07:00:00Z,28.1930,-82.7890,-1.0,20.2,2 
COMPS,ioos:station:USF.COMPS:ANC:1,2011-02-03T08:00:00Z,28.1930,-82.7890,-1.0,20.2,2 
COMPS,ioos:station:USF.COMPS:ANC:1,2011-02-03T09:00:00Z,28.1930,-82.7890,-1.0,20.1,2 
COMPS,ioos:station:USF.COMPS:ANC:1,2011-02-03T09:06:00Z,28.1930,-82.7890,-1.0,20.1,2 
COMPS,ioos:station:USF.COMPS:ANC:1,2011-02-03T09:12:00Z,28.1930,-82.7890,-1.0,20.1,2 
COMPS,ioos:station:USF.COMPS:ANC:1,2011-02-03T09:18:00Z,28.1930,-82.7890,-1.0,20.1,2 
COMPS,ioos:station:USF.COMPS:ANC:1,2011-02-03T09:24:00Z,28.1930,-82.7890,-1.0,20.1,2 
COMPS,ioos:station:USF.COMPS:ANC:1,2011-02-03T09:30:00Z,28.1930,-82.7890,-1.0,20.09,2 
COMPS,ioos:station:USF.COMPS:ANC:1,2011-02-03T09:36:00Z,28.1930,-82.7890,-1.0,20.09,2 
COMPS,ioos:station:USF.COMPS:ANC:1,2011-02-03T09:42:00Z,28.1930,-82.7890,-1.0,20.1,2 
COMPS,ioos:station:USF.COMPS:ANC:1,2011-02-03T09:48:00Z,28.1930,-82.7890,-1.0,20.1,2 
COMPS,ioos:station:USF.COMPS:ANC:1,2011-02-03T09:54:00Z,28.1930,-82.7890,-1.0,20.1,2 
COMPS,ioos:station:USF.COMPS:ANC:1,2011-02-03T10:00:00Z,28.1930,-82.7890,-1.0,20.1,2 
COMPS,ioos:station:USF.COMPS:ANC:1,2011-02-03T11:00:00Z,28.1930,-82.7890,-1.0,20.0,2 
COMPS,ioos:station:USF.COMPS:ANC:1,2011-02-03T12:00:00Z,28.1930,-82.7890,-1.0,19.9,2 
COMPS,ioos:station:USF.COMPS:ANC:1,2011-02-03T13:00:00Z,28.1930,-82.7890,-1.0,19.9,2 
COMPS,ioos:station:USF.COMPS:ANC:1,2011-02-03T14:00:00Z,28.1930,-82.7890,-1.0,20.2,2 
COMPS,ioos:station:USF.COMPS:ANC:1,2011-02-03T15:00:00Z,28.1930,-82.7890,-1.0,20.5,2 
COMPS,ioos:station:USF.COMPS:ANC:1,2011-02-03T16:00:00Z,28.1930,-82.7890,-1.0,20.6,2 
COMPS,ioos:station:USF.COMPS:ANC:1,2011-02-03T17:00:00Z,28.1930,-82.7890,-1.0,20.4,2 
COMPS,ioos:station:USF.COMPS:ANC:1,2011-02-03T17:06:00Z,28.1930,-82.7890,-1.0,20.33,2 
COMPS,ioos:station:USF.COMPS:ANC:1,2011-02-03T17:12:00Z,28.1930,-82.7890,-1.0,20.31,2 
COMPS,ioos:station:USF.COMPS:ANC:1,2011-02-03T17:18:00Z,28.1930,-82.7890,-1.0,20.29,2 
COMPS,ioos:station:USF.COMPS:ANC:1,2011-02-03T17:24:00Z,28.1930,-82.7890,-1.0,20.23,2 
COMPS,ioos:station:USF.COMPS:ANC:1,2011-02-03T17:30:00Z,28.1930,-82.7890,-1.0,20.21,2 
COMPS,ioos:station:USF.COMPS:ANC:1,2011-02-03T17:36:00Z,28.1930,-82.7890,-1.0,20.18,2 
COMPS,ioos:station:USF.COMPS:ANC:1,2011-02-03T17:42:00Z,28.1930,-82.7890,-1.0,20.15,2 
COMPS,ioos:station:USF.COMPS:ANC:1,2011-02-03T17:48:00Z,28.1930,-82.7890,-1.0,20.09,2 
COMPS,ioos:station:USF.COMPS:ANC:1,2011-02-03T17:54:00Z,28.1930,-82.7890,-1.0,20.11,2 
COMPS,ioos:station:USF.COMPS:ANC:1,2011-02-03T18:00:00Z,28.1930,-82.7890,-1.0,20.1,2 
COMPS,ioos:station:USF.COMPS:ANC:1,2011-02-03T19:00:00Z,28.1930,-82.7890,-1.0,20.2,2 
COMPS,ioos:station:USF.COMPS:ANC:1,2011-02-03T19:06:00Z,28.1930,-82.7890,-1.0,20.14,2 
COMPS,ioos:station:USF.COMPS:ANC:1,2011-02-03T19:12:00Z,28.1930,-82.7890,-1.0,20.15,2 
COMPS,ioos:station:USF.COMPS:ANC:1,2011-02-03T19:18:00Z,28.1930,-82.7890,-1.0,20.16,2 
COMPS,ioos:station:USF.COMPS:ANC:1,2011-02-03T19:24:00Z,28.1930,-82.7890,-1.0,20.14,2 
COMPS,ioos:station:USF.COMPS:ANC:1,2011-02-03T19:30:00Z,28.1930,-82.7890,-1.0,20.13,2 
COMPS,ioos:station:USF.COMPS:ANC:1,2011-02-03T19:36:00Z,28.1930,-82.7890,-1.0,20.11,2 
COMPS,ioos:station:USF.COMPS:ANC:1,2011-02-03T19:42:00Z,28.1930,-82.7890,-1.0,20.09,2 
COMPS,ioos:station:USF.COMPS:ANC:1,2011-02-03T19:48:00Z,28.1930,-82.7890,-1.0,20.1,2 
COMPS,ioos:station:USF.COMPS:ANC:1,2011-02-03T19:54:00Z,28.1930,-82.7890,-1.0,20.11,2 
COMPS,ioos:station:USF.COMPS:ANC:1,2011-02-03T20:00:00Z,28.1930,-82.7890,-1.0,20.1,2 
COMPS,ioos:station:USF.COMPS:ANC:1,2011-02-03T21:00:00Z,28.1930,-82.7890,-1.0,20.2,2 
COMPS,ioos:station:USF.COMPS:ANC:1,2011-02-03T22:00:00Z,28.1930,-82.7890,-1.0,20.3,2 
COMPS,ioos:station:USF.COMPS:ANC:1,2011-02-03T22:06:00Z,28.1930,-82.7890,-1.0,20.3,2 
COMPS,ioos:station:USF.COMPS:ANC:1,2011-02-03T22:12:00Z,28.1930,-82.7890,-1.0,20.31,2 
COMPS,ioos:station:USF.COMPS:ANC:1,2011-02-03T22:18:00Z,28.1930,-82.7890,-1.0,20.31,2 
COMPS,ioos:station:USF.COMPS:ANC:1,2011-02-03T22:24:00Z,28.1930,-82.7890,-1.0,20.31,2 
COMPS,ioos:station:USF.COMPS:ANC:1,2011-02-03T22:30:00Z,28.1930,-82.7890,-1.0,20.32,2 
COMPS,ioos:station:USF.COMPS:ANC:1,2011-02-03T22:36:00Z,28.1930,-82.7890,-1.0,20.32,2 
COMPS,ioos:station:USF.COMPS:ANC:1,2011-02-03T22:42:00Z,28.1930,-82.7890,-1.0,20.32,2 
COMPS,ioos:station:USF.COMPS:ANC:1,2011-02-03T22:48:00Z,28.1930,-82.7890,-1.0,20.34,2 
COMPS,ioos:station:USF.COMPS:ANC:1,2011-02-03T22:54:00Z,28.1930,-82.7890,-1.0,20.34,2 
COMPS,ioos:station:USF.COMPS:ANC:1,2011-02-03T23:00:00Z,28.1930,-82.7890,-1.0,20.3,2 
COMPS,ioos:station:USF.COMPS:ANC:1,2011-02-04T00:00:00Z,28.1930,-82.7890,-1.0,20.3,2 
COMPS,ioos:station:USF.COMPS:ANC:1,2011-02-04T01:00:00Z,28.1930,-82.7890,-1.0,20.6,2 
COMPS,ioos:station:USF.COMPS:ANC:1,2011-02-04T02:00:00Z,28.1930,-82.7890,-1.0,21.4,2 
COMPS,ioos:station:USF.COMPS:ANC:1,2011-02-04T03:00:00Z,28.1930,-82.7890,-1.0,20.8,2 
COMPS,ioos:station:USF.COMPS:ANC:1,2011-02-04T03:06:00Z,28.1930,-82.7890,-1.0,20.7,2 
COMPS,ioos:station:USF.COMPS:ANC:1,2011-02-04T03:12:00Z,28.1930,-82.7890,-1.0,20.6,2 
COMPS,ioos:station:USF.COMPS:ANC:1,2011-02-04T03:18:00Z,28.1930,-82.7890,-1.0,20.52,2 
COMPS,ioos:station:USF.COMPS:ANC:1,2011-02-04T03:24:00Z,28.1930,-82.7890,-1.0,20.44,2 
COMPS,ioos:station:USF.COMPS:ANC:1,2011-02-04T03:30:00Z,28.1930,-82.7890,-1.0,20.39,2 
COMPS,ioos:station:USF.COMPS:ANC:1,2011-02-04T03:36:00Z,28.1930,-82.7890,-1.0,20.38,2 
COMPS,ioos:station:USF.COMPS:ANC:1,2011-02-04T03:42:00Z,28.1930,-82.7890,-1.0,20.29,2 
COMPS,ioos:station:USF.COMPS:ANC:1,2011-02-04T03:48:00Z,28.1930,-82.7890,-1.0,20.26,2 
COMPS,ioos:station:USF.COMPS:ANC:1,2011-02-04T03:54:00Z,28.1930,-82.7890,-1.0,20.21,2 
COMPS,ioos:station:USF.COMPS:ANC:1,2011-02-04T04:00:00Z,28.1930,-82.7890,-1.0,20.2,2 
COMPS,ioos:station:USF.COMPS:ANC:1,2011-02-04T05:00:00Z,28.1930,-82.7890,-1.0,19.7,2 
COMPS,ioos:station:USF.COMPS:ANC:1,2011-02-04T06:00:00Z,28.1930,-82.7890,-1.0,20.0,2 
COMPS,ioos:station:USF.COMPS:ANC:1,2011-02-04T06:06:00Z,28.1930,-82.7890,-1.0,19.98,2 
COMPS,ioos:station:USF.COMPS:ANC:1,2011-02-04T06:12:00Z,28.1930,-82.7890,-1.0,20.0,2 
COMPS,ioos:station:USF.COMPS:ANC:1,2011-02-04T06:18:00Z,28.1930,-82.7890,-1.0,20.01,2 
COMPS,ioos:station:USF.COMPS:ANC:1,2011-02-04T06:24:00Z,28.1930,-82.7890,-1.0,20.0,2 
COMPS,ioos:station:USF.COMPS:ANC:1,2011-02-04T06:30:00Z,28.1930,-82.7890,-1.0,19.96,2 
COMPS,ioos:station:USF.COMPS:ANC:1,2011-02-04T06:36:00Z,28.1930,-82.7890,-1.0,19.93,2 
COMPS,ioos:station:USF.COMPS:ANC:1,2011-02-04T06:42:00Z,28.1930,-82.7890,-1.0,19.95,2 
COMPS,ioos:station:USF.COMPS:ANC:1,2011-02-04T06:48:00Z,28.1930,-82.7890,-1.0,19.96,2 